Location: Long Geng
(2.6167°N, 114.1333°E)
Time: 00:53:06
(UTC+00:00)

Meteor 2-13 Rocket - Pass Details

Date: 14 May 2021
Orbit: 937 x 957 km, 82.5° (Epoch: 19 June)

Event Time Altitude Azimuth Distance (km) Brightness Sun altitude
Rises 21:04:00 0° 187° (S) 3,591 7.2 -17.0°
Reaches altitude 10° 21:06:29 10° 189° (S) 2,646 6.5 -16.4°
Maximum altitude 21:12:31 76° 273° (W) 967 4.3 -15.0°
Drops below altitude 10° 21:18:33 10° 359° (N) 2,644 7.0 -13.6°
Sets 21:21:02 0° 1° (N) 3,589 7.7 -13.0°
